This is the latest recevied weather packets stored in our database for station/object K1PM-WX. If no packets are shown the sender has not sent any weather packets the latest 1 day(s).
| Time | Temp. | Humidity | Pressure | Rain* | Wind** | Luminosity | Snow |
|---|---|---|---|---|---|---|---|
| 1778020137 | 10° C | 99% | 1031 hPa | 2.79 mm | 1.34 m/s, 23° | - | - |
| 1778019836 | 10° C | 99% | 1031 hPa | 3.3 mm | 0.89 m/s, 0° | - | - |
| 1778019537 | 10° C | 99% | 1031 hPa | 3.05 mm | 1.34 m/s, 293° | - | - |
| 1778019238 | 10° C | 99% | 1031 hPa | 3.56 mm | 1.79 m/s, 270° | - | - |
| 1778018936 | 10° C | 99% | 1031 hPa | 3.3 mm | 1.34 m/s, 315° | - | - |
| 1778018336 | 10.56° C | 99% | 1031 hPa | 3.81 mm | 2.68 m/s, 270° | - | - |
| 1778018037 | 10.56° C | 99% | 1031 hPa | 3.81 mm | 1.34 m/s, 293° | - | - |
| 1778017736 | 11.11° C | 99% | 1031 hPa | 3.56 mm | 1.79 m/s, 270° | - | - |
| 1778017436 | 11.11° C | 99% | 1031 hPa | 3.56 mm | 4.02 m/s, 225° | - | - |
| 1778017137 | 11.11° C | 99% | 1031 hPa | 3.3 mm | 4.02 m/s, 270° | - | - |
| 1778016836 | 11.67° C | 99% | 1030 hPa | 2.79 mm | 2.68 m/s, 270° | - | - |
| 1778016536 | 11.67° C | 99% | 1030 hPa | 2.54 mm | 2.24 m/s, 203° | - | - |
| 1778016236 | 11.67° C | 99% | 1030 hPa | 2.03 mm | 2.68 m/s, 225° | - | - |
| 1778015936 | 11.67° C | 99% | 1030 hPa | 1.78 mm | 4.92 m/s, 270° | - | - |
| 1778015637 | 11.67° C | 98% | 1030 hPa | 1.27 mm | 3.13 m/s, 225° | - | - |
| 1778015336 | 12.22° C | 98% | 1030 hPa | 0.76 mm | 4.02 m/s, 248° | - | - |
| 1778015037 | 12.22° C | 97% | 1030 hPa | 0.25 mm | 4.92 m/s, 248° | - | - |
| 1778014736 | 12.22° C | 96% | 1030 hPa | 0.25 mm | 3.58 m/s, 248° | - | - |
| 1778014440 | 12.22° C | 96% | 1030 hPa | 0.25 mm | 2.68 m/s, 270° | - | - |
| 1778014137 | 12.22° C | 95% | 1030 hPa | 0 mm | 3.13 m/s, 180° | - | - |
| 1778013836 | 12.78° C | 94% | 1029 hPa | 0 mm | 4.02 m/s, 248° | - | - |
| 1778013536 | 12.78° C | 93% | 1029 hPa | 0 mm | 4.02 m/s, 248° | - | - |
| 1778013236 | 12.78° C | 92% | 1029 hPa | 0 mm | 4.47 m/s, 225° | - | - |
| 1778012937 | 12.78° C | 91% | 1029 hPa | 0 mm | 4.47 m/s, 248° | - | - |
| 1778012636 | 12.78° C | 90% | 1029 hPa | 0 mm | 6.71 m/s, 180° | - | - |
* Rain latest hour (hover to see other rain measurements)
** Current wind speed in m/s (hover to see current wind gust speed)